Regional Weather Roundup
Issued by NWS Cleveland, OH

Home | Current Version | Previous Version | Text Only | Print | Product List | Glossary Off
Versions: 1 2 3 4 5 6 7 8 9 10 11 12 13 14 15 16 17 18 19 20 21 22 23 24 25 26 27 28 29 30 31 32 33 34 35 36 37 38 39 40 41 42 43 44 45 46 47 48 49 50

000
ASUS41 KCLE 260810
RWRCLE
OHIO REGIONAL WEATHER ROUNDUP
NATIONAL WEATHER SERVICE CLEVELAND, OH
400 AM EDT WED APR 26 2017

NOTE: "FAIR" INDICATES FEW OR NO CLOUDS BELOW 12,000 FEET WITH NO
SIGNIFICANT WEATHER AND/OR OBSTRUCTIONS TO VISIBILITY.

OHZ001>008-015>018-024>027-034-035-043-044-260900-
   NORTHWEST OHIO

CITY           SKY/WX    TMP DP  RH WIND       PRES   REMARKS
DEFIANCE       CLEAR     60  53  77 SE6       29.67F
FINDLAY        CLEAR     60  52  74 SE9       29.69S
TOLEDO EXPRESS CLEAR     57  54  89 S6        29.68S
TOLEDO EXEC    CLEAR     57  54  89 SE8       29.70F
LIMA           CLEAR     58  54  86 SE8       29.69F
$$

OHZ009>014-019>023-028>033-038-089-260900-
   NORTHEAST OHIO

CITY           SKY/WX    TMP DP  RH WIND       PRES   REMARKS
CLE-HOPKINS    PTCLDY    58  51  78 SE7       29.76F
CLE-LAKEFRONT  CLEAR     58  52  80 SE6       29.73F
CUY CO. ARPT   NOT AVBL
LORAIN-ELYRIA  CLEAR     55  50  83 S7        29.73F
ASHTABULA      CLEAR     52  51  97 SE3       29.77F
AKRON-CANTON   MOCLDY    55  51  86 SE7       29.76F
WOOSTER        FOG       51  50  96 CALM      29.75F VSB 1/2
MANSFIELD      CLEAR     55  53  93 SE8       29.73F
YOUNGSTOWN     CLEAR     51  49  92 E6        29.77F
$$

OHZ042-051>053-060>062-070>072-077>081-260900-
  SOUTHWEST OHIO

CITY           SKY/WX    TMP DP  RH WIND       PRES   REMARKS
CINC-COVINGTON CLEAR     59  55  87 S3        29.70S
CINC-LUNKEN    FOG       52  52 100 CALM      29.71S VSB 3/4
HAMILTON       CLEAR     54  53  97 CALM      29.71S
DAYTON         PTCLDY    57  54  89 SE7       29.70F
WRIGHT-PAT AFB PTCLDY    60  58  93 CALM      29.69F
DAYTON GENERAL CLEAR     59  55  87 S5        29.69F
WILMINGTON     CLEAR     56  55  97 SE3       29.71S
$$

OHZ036-037-039>041-045>050-054>059-063>069-073>076-082>088-260900-
  CENTRAL AND SOUTHEAST OHIO

CITY           SKY/WX    TMP DP  RH WIND       PRES   REMARKS
COLUMBUS       CLEAR     58  55  90 E8        29.72F
OSU AIRPORT    CLEAR     57  54  89 SE5       29.72F
BOLTON FIELD   CLEAR     55  53  92 E5        29.72S
RICKENBACK AFB CLEAR     53  53  98 E3        29.72S
NEWARK         FOG       50  48  93 CALM      29.73F VSB 1
MARION         CLEAR     56  52  86 S8        29.72F
LANCASTER      CLEAR     53  50  89 CALM      29.73F
ZANESVILLE     CLEAR     52  50  93 E3        29.74F FOG
NEW PHILLY     NOT AVBL
$$




USA.gov is the U.S. government's official web portal to all federal, state and local government web resources and services.